Stündliche Wetter Warszewka

Heute, 24 Oktober, Samstag

Zeit Temperatur Niederschläge Wind Luftdruck Luftfeuchtigkeit
00:00 +12°C° 0.4 mm 3 m/S 746 mmHg 93%
01:00 +12°C° 0.4 mm 4 m/S 746 mmHg 91%
02:00 +12°C° 1.1 mm 4 m/S 746 mmHg 92%
03:00 +12°C° 1.1 mm 4 m/S 745 mmHg 92%
04:00 +12°C° 1.1 mm 5 m/S 745 mmHg 92%
05:00 +11°C° 0.2 mm 4 m/S 746 mmHg 91%
06:00 +11°C° 0.2 mm 3 m/S 746 mmHg 90%
07:00 +10°C° 0.2 mm 2 m/S 746 mmHg 88%
08:00 +11°C° 0 mm 3 m/S 747 mmHg 85%
09:00 +12°C° 0 mm 3 m/S 747 mmHg 82%
10:00 +13°C° 0 mm 3 m/S 748 mmHg 79%
11:00 +14°C° 0 mm 3 m/S 748 mmHg 76%
12:00 +15°C° 0 mm 4 m/S 748 mmHg 73%
13:00 +15°C° 0 mm 4 m/S 748 mmHg 70%
14:00 +15°C° 0 mm 4 m/S 748 mmHg 73%
15:00 +14°C° 0 mm 3 m/S 748 mmHg 77%
16:00 +14°C° 0 mm 3 m/S 748 mmHg 81%
17:00 +13°C° 0 mm 3 m/S 748 mmHg 84%
18:00 +12°C° 0 mm 3 m/S 749 mmHg 88%
19:00 +12°C° 0 mm 3 m/S 749 mmHg 91%
20:00 +11°C° 0 mm 3 m/S 749 mmHg 91%
21:00 +11°C° 0 mm 3 m/S 749 mmHg 92%
22:00 +10°C° 0 mm 2 m/S 750 mmHg 92%
23:00 +10°C° 0 mm 2 m/S 750 mmHg 92%

Morgen, 25 Oktober, Sonntag

Zeit Temperatur Niederschläge Wind Luftdruck Luftfeuchtigkeit
00:00 +10°C° 0 mm 2 m/S 750 mmHg 93%
01:00 +10°C° 0 mm 2 m/S 750 mmHg 94%
02:00 +9°C° 0 mm 2 m/S 750 mmHg 94%
03:00 +9°C° 0 mm 2 m/S 750 mmHg 94%
04:00 +9°C° 0 mm 2 m/S 749 mmHg 94%
05:00 +9°C° 0 mm 2 m/S 750 mmHg 94%
06:00 +9°C° 0 mm 2 m/S 750 mmHg 94%
07:00 +9°C° 0 mm 2 m/S 750 mmHg 93%
08:00 +10°C° 0 mm 2 m/S 750 mmHg 88%
09:00 +12°C° 0 mm 3 m/S 750 mmHg 82%
10:00 +13°C° 0 mm 3 m/S 750 mmHg 76%
11:00 +14°C° 0 mm 3 m/S 750 mmHg 72%
12:00 +16°C° 0 mm 3 m/S 749 mmHg 68%
13:00 +17°C° 0 mm 4 m/S 749 mmHg 64%
14:00 +16°C° 0 mm 3 m/S 749 mmHg 69%
15:00 +14°C° 0 mm 3 m/S 748 mmHg 73%
16:00 +13°C° 0 mm 3 m/S 748 mmHg 77%
17:00 +13°C° 0 mm 3 m/S 748 mmHg 80%
18:00 +12°C° 0 mm 3 m/S 748 mmHg 83%
19:00 +11°C° 0 mm 3 m/S 748 mmHg 87%
20:00 +11°C° 0 mm 3 m/S 748 mmHg 88%
21:00 +10°C° 0 mm 3 m/S 748 mmHg 90%
22:00 +10°C° 0 mm 3 m/S 747 mmHg 91%
23:00 +10°C° 0 mm 3 m/S 747 mmHg 91%

übermorgen, 26 Oktober, Montag

Zeit Temperatur Niederschläge Wind Luftdruck Luftfeuchtigkeit
00:00 +10°C° 0 mm 4 m/S 747 mmHg 90%
01:00 +10°C° 0 mm 4 m/S 747 mmHg 89%
02:00 +8°C° 0 mm 4 m/S 746 mmHg 91%
03:00 +9°C° 0 mm 3 m/S 746 mmHg 92%
04:00 +9°C° 0 mm 3 m/S 746 mmHg 94%
05:00 +10°C° 0 mm 3 m/S 745 mmHg 94%
06:00 +10°C° 0 mm 3 m/S 745 mmHg 94%
07:00 +10°C° 0 mm 4 m/S 745 mmHg 94%
08:00 +11°C° 0 mm 4 m/S 745 mmHg 91%
09:00 +12°C° 0 mm 4 m/S 745 mmHg 87%
10:00 +13°C° 0 mm 4 m/S 745 mmHg 84%
11:00 +14°C° 0 mm 4 m/S 745 mmHg 80%
12:00 +15°C° 0 mm 4 m/S 745 mmHg 75%
13:00 +17°C° 0 mm 4 m/S 744 mmHg 71%
14:00 +16°C° 0.1 mm 3 m/S 744 mmHg 74%
15:00 +16°C° 0.1 mm 3 m/S 744 mmHg 77%
16:00 +15°C° 0.1 mm 2 m/S 743 mmHg 79%
17:00 +14°C° 0.1 mm 3 m/S 744 mmHg 81%
18:00 +13°C° 0.1 mm 3 m/S 744 mmHg 82%
19:00 +13°C° 0.1 mm 3 m/S 744 mmHg 84%
20:00 +13°C° 0.1 mm 3 m/S 744 mmHg 83%
21:00 +13°C° 0.1 mm 3 m/S 744 mmHg 82%
22:00 +13°C° 0.1 mm 3 m/S 744 mmHg 82%
23:00 +13°C° 0 mm 3 m/S 744 mmHg 84%

, 27 Oktober, Dienstag

Zeit Temperatur Niederschläge Wind Luftdruck Luftfeuchtigkeit
00:00 +12°C° 0 mm 3 m/S 744 mmHg 87%
01:00 +11°C° 0 mm 3 m/S 744 mmHg 89%
02:00 +12°C° 0 mm 2 m/S 744 mmHg 90%
03:00 +10°C° 0 mm 2 m/S 744 mmHg 91%
04:00 +10°C° 0 mm 2 m/S 744 mmHg 92%
05:00 +10°C° 0 mm 2 m/S 745 mmHg 92%
06:00 +12°C° 0 mm 2 m/S 745 mmHg 91%
07:00 +12°C° 0 mm 1 m/S 745 mmHg 90%
08:00 +13°C° 0.1 mm 2 m/S 745 mmHg 86%
09:00 +14°C° 0.1 mm 2 m/S 745 mmHg 83%
10:00 +14°C° 0.1 mm 3 m/S 746 mmHg 79%
11:00 +14°C° 0 mm 3 m/S 746 mmHg 76%
12:00 +16°C° 0 mm 3 m/S 746 mmHg 74%
13:00 +16°C° 0 mm 3 m/S 745 mmHg 71%
14:00 +16°C° 0 mm 3 m/S 745 mmHg 71%
15:00 +16°C° 0 mm 3 m/S 745 mmHg 72%
16:00 +16°C° 0 mm 3 m/S 745 mmHg 72%
17:00 +14°C° 0 mm 3 m/S 745 mmHg 75%
18:00 +15°C° 0 mm 2 m/S 746 mmHg 78%
19:00 +14°C° 0 mm 2 m/S 746 mmHg 81%
20:00 +14°C° 0.1 mm 2 m/S 746 mmHg 84%
21:00 +13°C° 0.1 mm 2 m/S 746 mmHg 87%
22:00 +13°C° 0.1 mm 2 m/S 747 mmHg 90%
23:00 +12°C° 0.1 mm 2 m/S 747 mmHg 91%

27 Oktober, Dienstag

Zeit Temperatur Niederschläge Wind Luftdruck Luftfeuchtigkeit
00:00 +12°C° 0 mm 3 m/S 744 mmHg 87%
01:00 +11°C° 0 mm 3 m/S 744 mmHg 89%
02:00 +12°C° 0 mm 2 m/S 744 mmHg 90%
03:00 +10°C° 0 mm 2 m/S 744 mmHg 91%
04:00 +10°C° 0 mm 2 m/S 744 mmHg 92%
05:00 +10°C° 0 mm 2 m/S 745 mmHg 92%
06:00 +12°C° 0 mm 2 m/S 745 mmHg 91%
07:00 +12°C° 0 mm 1 m/S 745 mmHg 90%
08:00 +13°C° 0.1 mm 2 m/S 745 mmHg 86%
09:00 +14°C° 0.1 mm 2 m/S 745 mmHg 83%
10:00 +14°C° 0.1 mm 3 m/S 746 mmHg 79%
11:00 +14°C° 0 mm 3 m/S 746 mmHg 76%
12:00 +16°C° 0 mm 3 m/S 746 mmHg 74%
13:00 +16°C° 0 mm 3 m/S 745 mmHg 71%
14:00 +16°C° 0 mm 3 m/S 745 mmHg 71%
15:00 +16°C° 0 mm 3 m/S 745 mmHg 72%
16:00 +16°C° 0 mm 3 m/S 745 mmHg 72%
17:00 +14°C° 0 mm 3 m/S 745 mmHg 75%
18:00 +15°C° 0 mm 2 m/S 746 mmHg 78%
19:00 +14°C° 0 mm 2 m/S 746 mmHg 81%
20:00 +14°C° 0.1 mm 2 m/S 746 mmHg 84%
21:00 +13°C° 0.1 mm 2 m/S 746 mmHg 87%
22:00 +13°C° 0.1 mm 2 m/S 747 mmHg 90%
23:00 +12°C° 0.1 mm 2 m/S 747 mmHg 91%

28 Oktober, Mittwoch

Zeit Temperatur Niederschläge Wind Luftdruck Luftfeuchtigkeit
00:00 +12°C° 0.1 mm 2 m/S 747 mmHg 92%
01:00 +10°C° 0.1 mm 3 m/S 748 mmHg 93%
02:00 +9°C° 0 mm 2 m/S 748 mmHg 94%
03:00 +9°C° 0 mm 2 m/S 748 mmHg 95%
04:00 +8°C° 0 mm 2 m/S 748 mmHg 96%
05:00 +8°C° 0 mm 2 m/S 748 mmHg 95%
06:00 +9°C° 0 mm 1 m/S 749 mmHg 95%
07:00 +9°C° 0 mm 1 m/S 749 mmHg 95%
08:00 +9°C° 0 mm 2 m/S 749 mmHg 89%
09:00 +10°C° 0 mm 2 m/S 749 mmHg 83%
10:00 +12°C° 0 mm 2 m/S 749 mmHg 77%
11:00 +12°C° 0 mm 3 m/S 749 mmHg 74%
12:00 +13°C° 0 mm 3 m/S 749 mmHg 70%
13:00 +14°C° 0 mm 3 m/S 749 mmHg 67%
14:00 +13°C° 0 mm 3 m/S 749 mmHg 70%
15:00 +12°C° 0 mm 3 m/S 749 mmHg 72%
16:00 +13°C° 0 mm 2 m/S 748 mmHg 75%
17:00 +12°C° 0 mm 2 m/S 749 mmHg 79%
18:00 +11°C° 0 mm 3 m/S 749 mmHg 83%
19:00 +10°C° 0 mm 3 m/S 749 mmHg 87%
20:00 +10°C° 0 mm 3 m/S 749 mmHg 88%
21:00 +10°C° 0 mm 3 m/S 749 mmHg 89%
22:00 +10°C° 0 mm 3 m/S 749 mmHg 90%
23:00 +10°C° 0 mm 3 m/S 749 mmHg 90%

29 Oktober, Donnerstag

Zeit Temperatur Niederschläge Wind Luftdruck Luftfeuchtigkeit
00:00 +9°C° 0 mm 3 m/S 749 mmHg 89%
01:00 +9°C° 0 mm 3 m/S 749 mmHg 89%
02:00 +9°C° 0 mm 3 m/S 749 mmHg 87%
03:00 +8°C° 0 mm 3 m/S 749 mmHg 86%
04:00 +8°C° 0 mm 3 m/S 749 mmHg 84%
05:00 +8°C° 0 mm 3 m/S 749 mmHg 84%
06:00 +8°C° 0 mm 3 m/S 749 mmHg 84%
07:00 +8°C° 0 mm 3 m/S 749 mmHg 83%
08:00 +8°C° 0 mm 4 m/S 749 mmHg 78%
09:00 +10°C° 0 mm 5 m/S 749 mmHg 72%
10:00 +12°C° 0 mm 5 m/S 749 mmHg 66%
11:00 +13°C° 0 mm 6 m/S 749 mmHg 64%
12:00 +14°C° 0 mm 6 m/S 749 mmHg 62%
13:00 +14°C° 0 mm 6 m/S 749 mmHg 60%
14:00 +13°C° 0.2 mm 5 m/S 750 mmHg 64%
15:00 +13°C° 0.2 mm 5 m/S 750 mmHg 69%
16:00 +12°C° 0.2 mm 4 m/S 750 mmHg 73%
17:00 +11°C° 0 mm 4 m/S 750 mmHg 76%
18:00 +10°C° 0 mm 3 m/S 751 mmHg 78%
19:00 +9°C° 0 mm 3 m/S 751 mmHg 81%
20:00 +9°C° 0 mm 3 m/S 752 mmHg 82%
21:00 +8°C° 0 mm 3 m/S 752 mmHg 84%
22:00 +8°C° 0 mm 3 m/S 752 mmHg 85%
23:00 +8°C° 0 mm 3 m/S 752 mmHg 86%
Mehr zeigen

Wir brauchen deine Erlaubnis

Meteoprog und unser Service Anbieter werden persönliche Daten aufbewahren, so wie Cookies, Geräte Bezeichnung oder ähnliche Technologien von deinem Gerät und Prozess, so wie Persönliche Daten Inhalte und Werbungen, genauso wie social Media und den Verkehr zu analysieren.

  • Aufbewahrung und/oder Zugang zu deiner Geräte Informationen.

    Cookies, Geräte Bezeichnung oder andere Informationen, können aufbewahrt oder Zugang zu deinem Gerät erhalten, für den Grund, der oben angegeben wird.

  • Personalisierte Werbung und Inhalte, Messungen, Einblick in das Publikum und Produkt Entwicklung.

    Werbungen und Inhalte können personalisiert werden, basierend auf ein Profil. Mehr Daten können besser personalisierte Werbungen und Inhalte hinzufügen. Werbung und Inhalte können gezeigt und gemessen werden. Einblicke über das Publikum, welche die Werbung gesehen haben und den Inhalt, können abgeleitet werden. So wie Daten können genutzt werden, um es zu verbessern oder die Benutzer Erfahrung zu verbessern das System und die Software.

Wenn du “Ich stimme zu” klickst, erlaubst du uns, die Cookies zu benutzen die Geräte Bezeichnung, den Web oder ähnliche Technologien zu benutzen. Deine Settings, können in deinem Gerät bei deinem Browser geändert werden.

Für den bestimmten Zweck, berechtigten Interessen beruhen darauf, mehr als auf den Inhalt. Du kannst mehr darüber in unseren Privaten und Cookie Politik lesen.